Simultaneous Nadir Overpasses (SNOs) Predictions

Prediction of SNOs between GOES-17 and METOP-B Satellite Orbit:

Table of predicted SNOs for the next 14.0 days since TLE Epoch: 10/10/2020
Index Date Time (GOES-17) GOES-17 Lat,Lon METOP-B Lat,Lon Distance(km) Time Diff (sec)
1 10/10/2020 06:41:05 0.05,-137.19 -0.15,-138.08 101.88 80
2 10/11/2020 06:23:07 0.04,-137.18 0.98,-133.10 466.64 80
3 10/12/2020 18:39:18 -0.04,-137.18 0.09,-137.64 53.20 80
4 10/15/2020 06:37:41 0.04,-137.15 0.02,-137.25 11.49 80
5 10/17/2020 18:38:35 -0.04,-137.13 -0.13,-136.82 35.54 80
6 10/19/2020 06:54:55 0.04,-137.09 -0.94,-141.41 492.05 80
7 10/20/2020 06:36:56 0.04,-137.07 0.20,-136.42 75.04 80
8 10/21/2020 18:53:09 -0.03,-137.05 0.83,-140.98 447.04 80
9 10/22/2020 18:35:09 -0.03,-137.03 -0.24,-135.97 119.73 80
